28.03.2024;21:00;13,75
28.03.2024;20:45;13,75
28.03.2024;20:30;13,75
28.03.2024;20:15;13,75
28.03.2024;20:00;13,75
28.03.2024;19:45;13,75
28.03.2024;19:30;13,75
28.03.2024;19:15;13,75
28.03.2024;19:00;13,75
28.03.2024;18:45;13,71
28.03.2024;18:30;13,75
28.03.2024;18:15;13,71
28.03.2024;18:00;13,75
28.03.2024;17:45;13,71
28.03.2024;17:30;13,71
28.03.2024;17:15;13,71
28.03.2024;17:00;13,75
28.03.2024;16:45;13,71
28.03.2024;16:30;13,71
28.03.2024;16:15;13,71
28.03.2024;16:00;13,71
28.03.2024;15:45;13,71
28.03.2024;15:30;13,71
28.03.2024;15:15;13,71
28.03.2024;15:00;13,71
28.03.2024;14:45;13,71
28.03.2024;14:30;13,71
28.03.2024;14:15;13,71
28.03.2024;14:00;13,71
28.03.2024;13:45;13,71
28.03.2024;13:30;13,65
28.03.2024;13:15;13,65
28.03.2024;13:00;13,65
28.03.2024;12:45;13,71
28.03.2024;12:30;13,71
28.03.2024;12:15;13,71
28.03.2024;12:00;13,71
28.03.2024;11:45;13,68
28.03.2024;11:30;13,71
28.03.2024;11:15;13,71
28.03.2024;11:00;13,71
28.03.2024;10:45;13,68
28.03.2024;10:30;13,68
28.03.2024;10:15;13,68
28.03.2024;10:00;13,68
28.03.2024;09:45;13,71
28.03.2024;09:30;13,68
28.03.2024;09:15;13,68
28.03.2024;09:00;13,68
28.03.2024;08:45;13,68
28.03.2024;08:30;13,68
28.03.2024;08:15;13,68
28.03.2024;08:00;13,68
28.03.2024;07:45;13,68
28.03.2024;07:30;13,68
28.03.2024;07:15;13,68
28.03.2024;07:00;13,68
28.03.2024;06:45;13,68
28.03.2024;06:30;13,68
28.03.2024;06:15;13,68
28.03.2024;06:00;13,68
28.03.2024;05:45;13,68
28.03.2024;05:30;13,68
28.03.2024;05:15;13,68
28.03.2024;05:00;13,68
28.03.2024;04:45;13,68
28.03.2024;04:30;13,68
28.03.2024;04:15;13,68
28.03.2024;04:00;13,68
28.03.2024;03:45;13,68
28.03.2024;03:30;13,68
28.03.2024;03:15;13,68
28.03.2024;03:00;13,68
28.03.2024;02:45;13,68
28.03.2024;02:30;13,68
28.03.2024;02:15;13,68
28.03.2024;02:00;13,68
28.03.2024;01:45;13,68
28.03.2024;01:30;13,68
28.03.2024;01:15;13,68
28.03.2024;01:00;13,68
28.03.2024;00:45;13,68
28.03.2024;00:30;13,68
28.03.2024;00:15;13,65
28.03.2024;00:00;13,68
27.03.2024;23:45;13,68
27.03.2024;23:30;13,68
27.03.2024;23:15;13,68
27.03.2024;23:00;13,65
27.03.2024;22:45;13,68
27.03.2024;22:30;13,68
27.03.2024;22:15;13,68
27.03.2024;22:00;13,68
27.03.2024;21:45;13,65
27.03.2024;21:30;13,65
27.03.2024;21:15;13,68
27.03.2024;21:00;13,65
27.03.2024;20:45;13,68
27.03.2024;20:30;13,68
27.03.2024;20:15;13,68
27.03.2024;20:00;13,68
27.03.2024;19:45;13,65
27.03.2024;19:30;13,65
27.03.2024;19:15;13,68
27.03.2024;19:00;13,68
27.03.2024;18:45;13,65
27.03.2024;18:30;13,65
27.03.2024;18:15;13,65
27.03.2024;18:00;13,65
27.03.2024;17:45;13,65
27.03.2024;17:30;13,65
27.03.2024;17:15;13,65
27.03.2024;17:00;13,68
27.03.2024;16:45;13,65
27.03.2024;16:30;13,65
27.03.2024;16:15;13,65
27.03.2024;16:00;13,65
27.03.2024;15:45;13,65
27.03.2024;15:30;13,65
27.03.2024;15:15;13,65
27.03.2024;15:00;13,65
27.03.2024;14:45;13,68
27.03.2024;14:30;13,65
27.03.2024;14:15;13,65
27.03.2024;14:00;13,65
27.03.2024;13:45;13,65
27.03.2024;13:30;13,65
27.03.2024;13:15;13,65
27.03.2024;13:00;13,65
27.03.2024;12:45;13,65
27.03.2024;12:30;13,65
27.03.2024;12:15;13,65
27.03.2024;12:00;13,65
27.03.2024;11:45;13,65
27.03.2024;11:30;13,65
27.03.2024;11:15;13,65
27.03.2024;11:00;13,65
27.03.2024;10:45;13,65
27.03.2024;10:30;13,65
27.03.2024;10:15;13,65
27.03.2024;10:00;13,65
27.03.2024;09:45;13,65
27.03.2024;09:30;13,65
27.03.2024;09:15;13,65
27.03.2024;09:00;13,65
27.03.2024;08:45;13,65
27.03.2024;08:30;13,65
27.03.2024;08:15;13,65
27.03.2024;08:00;13,65
27.03.2024;07:45;13,65
27.03.2024;07:30;13,65
27.03.2024;07:15;13,65
27.03.2024;07:00;13,65
27.03.2024;06:45;13,65
27.03.2024;06:30;13,65
27.03.2024;06:15;13,65
27.03.2024;06:00;13,65
27.03.2024;05:45;13,65
27.03.2024;05:30;13,65
27.03.2024;05:15;13,65
27.03.2024;05:00;13,65
27.03.2024;04:45;13,65
27.03.2024;04:30;13,65
27.03.2024;04:15;13,65
27.03.2024;04:00;13,65
27.03.2024;03:45;13,62
27.03.2024;03:30;13,65
27.03.2024;03:15;13,65
27.03.2024;03:00;13,65
27.03.2024;02:45;13,65
27.03.2024;02:30;13,65
27.03.2024;02:15;13,65
27.03.2024;02:00;13,65
27.03.2024;01:45;13,65
27.03.2024;01:30;13,65
27.03.2024;01:15;13,65
27.03.2024;01:00;13,65
27.03.2024;00:45;13,65
27.03.2024;00:30;13,65
27.03.2024;00:15;13,65
27.03.2024;00:00;13,65
26.03.2024;23:45;13,65
26.03.2024;23:30;13,65
26.03.2024;23:15;13,65
26.03.2024;23:00;13,65
26.03.2024;22:45;13,65
26.03.2024;22:30;13,65
26.03.2024;22:15;13,65
26.03.2024;22:00;13,65
26.03.2024;21:45;13,65
26.03.2024;21:30;13,65
26.03.2024;21:15;13,65
26.03.2024;21:00;13,65
26.03.2024;20:45;13,65
26.03.2024;20:30;13,65
26.03.2024;20:15;13,65
26.03.2024;20:00;13,65
26.03.2024;19:45;13,65
26.03.2024;19:30;13,65
26.03.2024;19:15;13,65
26.03.2024;19:00;13,65
26.03.2024;18:45;13,65
26.03.2024;18:30;13,65
26.03.2024;18:15;13,65
26.03.2024;18:00;13,65
26.03.2024;17:45;13,65
26.03.2024;17:30;13,65
26.03.2024;17:15;13,65
26.03.2024;17:00;13,65
26.03.2024;16:45;13,65
26.03.2024;16:30;13,65
26.03.2024;16:15;13,65
26.03.2024;16:00;13,65
26.03.2024;15:45;13,87
26.03.2024;15:30;14,38
26.03.2024;15:15;14,38
26.03.2024;15:00;14,38
26.03.2024;14:45;14,38
26.03.2024;14:30;14,38
26.03.2024;14:15;14,38
26.03.2024;14:00;14,38
26.03.2024;13:45;14,38
26.03.2024;13:30;14,35
26.03.2024;13:15;14,35
26.03.2024;13:00;14,32
26.03.2024;12:45;12,93
26.03.2024;12:30;12,90
26.03.2024;12:15;12,90
26.03.2024;12:00;12,93
26.03.2024;11:45;12,93
26.03.2024;11:30;12,93
26.03.2024;11:15;12,93
26.03.2024;11:00;12,93
26.03.2024;10:45;12,93
26.03.2024;10:30;12,93
26.03.2024;10:15;12,93
26.03.2024;10:00;12,93
26.03.2024;09:45;12,93
26.03.2024;09:30;12,93
26.03.2024;09:15;12,93
26.03.2024;09:00;12,93
26.03.2024;08:45;12,93
26.03.2024;08:30;12,93
26.03.2024;08:15;12,93
26.03.2024;08:00;12,93
26.03.2024;07:45;12,93
26.03.2024;07:30;12,93
26.03.2024;07:15;12,93
26.03.2024;07:00;12,96
26.03.2024;06:45;12,93
26.03.2024;06:30;12,96
26.03.2024;06:15;12,96
26.03.2024;06:00;12,96
26.03.2024;05:45;12,96
26.03.2024;05:30;12,96
26.03.2024;05:15;12,96
26.03.2024;05:00;12,99
26.03.2024;04:45;12,99
26.03.2024;04:30;12,99
26.03.2024;04:15;13,02
26.03.2024;04:00;13,02
26.03.2024;03:45;13,05
26.03.2024;03:30;13,05
26.03.2024;03:15;13,05
26.03.2024;03:00;13,05
26.03.2024;02:45;13,11
26.03.2024;02:30;13,14
26.03.2024;02:15;13,17
26.03.2024;02:00;13,26
26.03.2024;01:45;13,53
26.03.2024;01:30;12,90
26.03.2024;01:15;12,90
26.03.2024;01:00;12,90
26.03.2024;00:45;12,90
26.03.2024;00:30;12,90
26.03.2024;00:15;12,90
26.03.2024;00:00;12,90
25.03.2024;23:45;12,90
25.03.2024;23:30;12,90
25.03.2024;23:15;12,90
25.03.2024;23:00;12,90
25.03.2024;22:45;12,90
25.03.2024;22:30;12,90
25.03.2024;22:15;12,90
25.03.2024;22:00;12,90
25.03.2024;21:45;12,90
25.03.2024;21:30;12,90
25.03.2024;21:15;12,90
25.03.2024;21:00;12,90
25.03.2024;20:45;12,90
25.03.2024;20:30;12,90
25.03.2024;20:15;12,90
25.03.2024;20:00;12,90
25.03.2024;19:45;12,90
25.03.2024;19:30;12,90
25.03.2024;19:15;12,90
25.03.2024;19:00;12,90
25.03.2024;18:45;12,90
25.03.2024;18:30;12,90
25.03.2024;18:15;12,90
25.03.2024;18:00;12,90
25.03.2024;17:45;12,90
25.03.2024;17:30;12,90
25.03.2024;17:15;12,90
25.03.2024;17:00;12,90
25.03.2024;16:45;12,90
25.03.2024;16:30;12,90
25.03.2024;16:15;12,90
25.03.2024;16:00;12,90
25.03.2024;15:45;12,90
25.03.2024;15:30;12,90
25.03.2024;15:15;12,90
25.03.2024;15:00;12,90
25.03.2024;14:45;12,90
25.03.2024;14:30;12,90
25.03.2024;14:15;12,90
25.03.2024;14:00;12,86
25.03.2024;13:45;12,83
25.03.2024;13:30;12,77
25.03.2024;13:15;12,80
25.03.2024;13:00;12,90
25.03.2024;12:45;12,90
25.03.2024;12:30;12,90
25.03.2024;12:15;12,90
25.03.2024;12:00;12,93
25.03.2024;11:45;12,93
25.03.2024;11:30;12,93
25.03.2024;11:15;12,93
25.03.2024;11:00;12,93
25.03.2024;10:45;12,93
25.03.2024;10:30;12,93
25.03.2024;10:15;12,90
25.03.2024;10:00;12,93
25.03.2024;09:45;12,93
25.03.2024;09:30;12,93
25.03.2024;09:15;12,93
25.03.2024;09:00;12,93
25.03.2024;08:45;12,93
25.03.2024;08:30;12,93
25.03.2024;08:15;12,93
25.03.2024;08:00;12,93
25.03.2024;07:45;12,93
25.03.2024;07:30;12,93
25.03.2024;07:15;12,93
25.03.2024;07:00;12,96
25.03.2024;06:45;12,96
25.03.2024;06:30;12,96
25.03.2024;06:15;12,96
25.03.2024;06:00;12,96
25.03.2024;05:45;12,96
25.03.2024;05:30;12,99
25.03.2024;05:15;12,99
25.03.2024;05:00;13,02
25.03.2024;04:45;13,02
25.03.2024;04:30;13,02
25.03.2024;04:15;13,05
25.03.2024;04:00;13,05
25.03.2024;03:45;13,08
25.03.2024;03:30;13,11
25.03.2024;03:15;13,17
25.03.2024;03:00;13,20
25.03.2024;02:45;13,32
25.03.2024;02:30;12,90
25.03.2024;02:15;12,90
25.03.2024;02:00;12,90
25.03.2024;01:45;12,90
25.03.2024;01:30;12,90
25.03.2024;01:15;12,90
25.03.2024;01:00;12,90
25.03.2024;00:45;12,90
25.03.2024;00:30;12,90
25.03.2024;00:15;12,90
25.03.2024;00:00;12,90
24.03.2024;23:45;12,90
24.03.2024;23:30;12,90
24.03.2024;23:15;12,90
24.03.2024;23:00;12,90
24.03.2024;22:45;12,90
24.03.2024;22:30;12,90
24.03.2024;22:15;12,90
24.03.2024;22:00;12,90
24.03.2024;21:45;12,90
24.03.2024;21:30;12,90
24.03.2024;21:15;12,90
24.03.2024;21:00;12,90
24.03.2024;20:45;12,90
24.03.2024;20:30;12,90
24.03.2024;20:15;12,90
24.03.2024;20:00;12,90
24.03.2024;19:45;12,90
24.03.2024;19:30;12,90
24.03.2024;19:15;12,90
24.03.2024;19:00;12,90
24.03.2024;18:45;12,90
24.03.2024;18:30;12,90
24.03.2024;18:15;12,90
24.03.2024;18:00;12,90
24.03.2024;17:45;12,90
24.03.2024;17:30;12,90
24.03.2024;17:15;12,90
24.03.2024;17:00;12,90
24.03.2024;16:45;12,90
24.03.2024;16:30;12,90
24.03.2024;16:15;12,90
24.03.2024;16:00;12,90
24.03.2024;15:45;12,90
24.03.2024;15:30;12,90
24.03.2024;15:15;12,90
24.03.2024;15:00;12,90
24.03.2024;14:45;12,90
24.03.2024;14:30;12,90
24.03.2024;14:15;12,86
24.03.2024;14:00;12,86
24.03.2024;13:45;12,86
24.03.2024;13:30;12,77
24.03.2024;13:15;12,80
24.03.2024;13:00;12,90
24.03.2024;12:45;12,93
24.03.2024;12:30;12,93
24.03.2024;12:15;12,93
24.03.2024;12:00;12,93
24.03.2024;11:45;12,93
24.03.2024;11:30;12,93
24.03.2024;11:15;12,93
24.03.2024;11:00;12,93
24.03.2024;10:45;12,93
24.03.2024;10:30;12,93
24.03.2024;10:15;12,93
24.03.2024;10:00;12,93
24.03.2024;09:45;12,93
24.03.2024;09:30;12,93
24.03.2024;09:15;12,93
24.03.2024;09:00;12,93
24.03.2024;08:45;12,93
24.03.2024;08:30;12,93
24.03.2024;08:15;12,93
24.03.2024;08:00;12,96
24.03.2024;07:45;12,93
24.03.2024;07:30;12,96
24.03.2024;07:15;12,96
24.03.2024;07:00;12,96
24.03.2024;06:45;12,96
24.03.2024;06:30;12,96
24.03.2024;06:15;12,99
24.03.2024;06:00;13,02
24.03.2024;05:45;13,02
24.03.2024;05:30;13,05
24.03.2024;05:15;13,05
24.03.2024;05:00;13,05
24.03.2024;04:45;13,08
24.03.2024;04:30;13,11
24.03.2024;04:15;13,14
24.03.2024;04:00;13,17
24.03.2024;03:45;13,29
24.03.2024;03:30;13,53
24.03.2024;03:15;12,90
24.03.2024;03:00;12,90
24.03.2024;02:45;12,90
24.03.2024;02:30;12,90
24.03.2024;02:15;12,90
24.03.2024;02:00;12,93
24.03.2024;01:45;12,90
24.03.2024;01:30;12,90
24.03.2024;01:15;12,90
24.03.2024;01:00;12,90
24.03.2024;00:45;12,90
24.03.2024;00:30;12,90
24.03.2024;00:15;12,90
24.03.2024;00:00;12,90
23.03.2024;23:45;12,90
23.03.2024;23:30;12,90
23.03.2024;23:15;12,90
23.03.2024;23:00;12,90
23.03.2024;22:45;12,90
23.03.2024;22:30;12,90
23.03.2024;22:15;12,90
23.03.2024;22:00;12,90
23.03.2024;21:45;12,90
23.03.2024;21:30;12,90
23.03.2024;21:15;12,90
23.03.2024;21:00;12,93
23.03.2024;20:45;12,90
23.03.2024;20:30;12,90
23.03.2024;20:15;12,90
23.03.2024;20:00;12,90
23.03.2024;19:45;12,90
23.03.2024;19:30;12,90
23.03.2024;19:15;12,90
23.03.2024;19:00;12,90
23.03.2024;18:45;12,90
23.03.2024;18:30;12,90
23.03.2024;18:15;12,90
23.03.2024;18:00;12,90
23.03.2024;17:45;12,90
23.03.2024;17:30;12,90
23.03.2024;17:15;12,90
23.03.2024;17:00;12,90
23.03.2024;16:45;12,90
23.03.2024;16:30;12,90
23.03.2024;16:15;12,90
23.03.2024;16:00;12,90
23.03.2024;15:45;12,90
23.03.2024;15:30;12,90
23.03.2024;15:15;12,90
23.03.2024;15:00;12,90
23.03.2024;14:45;12,90
23.03.2024;14:30;12,90
23.03.2024;14:15;12,90
23.03.2024;14:00;12,86
23.03.2024;13:45;12,86
23.03.2024;13:30;12,77
23.03.2024;13:15;12,80
23.03.2024;13:00;12,93
23.03.2024;12:45;12,93
23.03.2024;12:30;12,93
23.03.2024;12:15;12,93
23.03.2024;12:00;12,93
23.03.2024;11:45;12,93
23.03.2024;11:30;12,93
23.03.2024;11:15;12,93
23.03.2024;11:00;12,93
23.03.2024;10:45;12,93
23.03.2024;10:30;12,93
23.03.2024;10:15;12,93
23.03.2024;10:00;12,93
23.03.2024;09:45;12,93
23.03.2024;09:30;12,93
23.03.2024;09:15;12,93
23.03.2024;09:00;12,96
23.03.2024;08:45;12,96
23.03.2024;08:30;12,96
23.03.2024;08:15;12,96
23.03.2024;08:00;12,96
23.03.2024;07:45;12,96
23.03.2024;07:30;12,99
23.03.2024;07:15;12,99
23.03.2024;07:00;13,02
23.03.2024;06:45;13,02
23.03.2024;06:30;13,02
23.03.2024;06:15;13,05
23.03.2024;06:00;13,05
23.03.2024;05:45;13,08
23.03.2024;05:30;13,08
23.03.2024;05:15;13,11
23.03.2024;05:00;13,17
23.03.2024;04:45;13,23
23.03.2024;04:30;13,35
23.03.2024;04:15;12,90
23.03.2024;04:00;12,90
23.03.2024;03:45;12,90
23.03.2024;03:30;12,90
23.03.2024;03:15;12,90
23.03.2024;03:00;12,93
23.03.2024;02:45;12,90
23.03.2024;02:30;12,90
23.03.2024;02:15;12,90
23.03.2024;02:00;12,93
23.03.2024;01:45;12,90
23.03.2024;01:30;12,90
23.03.2024;01:15;12,90
23.03.2024;01:00;12,90
23.03.2024;00:45;12,90
23.03.2024;00:30;12,90
23.03.2024;00:15;12,90
23.03.2024;00:00;12,90
22.03.2024;23:45;12,90
22.03.2024;23:30;12,93
22.03.2024;23:15;12,90
22.03.2024;23:00;12,90
22.03.2024;22:45;12,90
22.03.2024;22:30;12,90
22.03.2024;22:15;12,90
22.03.2024;22:00;12,93
22.03.2024;21:45;12,93
22.03.2024;21:30;12,93
22.03.2024;21:15;12,90
22.03.2024;21:00;12,90
22.03.2024;20:45;12,93
22.03.2024;20:30;12,90
22.03.2024;20:15;12,90
22.03.2024;20:00;12,90
22.03.2024;19:45;12,90
22.03.2024;19:30;12,93
22.03.2024;19:15;12,90
22.03.2024;19:00;12,90
22.03.2024;18:45;12,93
22.03.2024;18:30;12,90
22.03.2024;18:15;12,90
22.03.2024;18:00;12,93
22.03.2024;17:45;12,90
22.03.2024;17:30;12,93
22.03.2024;17:15;12,90
22.03.2024;17:00;12,93
22.03.2024;16:45;12,93
22.03.2024;16:30;12,90
22.03.2024;16:15;12,90
22.03.2024;16:00;12,90
22.03.2024;15:45;12,90
22.03.2024;15:30;12,90
22.03.2024;15:15;12,90
22.03.2024;15:00;12,90
22.03.2024;14:45;12,90
22.03.2024;14:30;12,90
22.03.2024;14:15;12,90
22.03.2024;14:00;12,90
22.03.2024;13:45;12,86
22.03.2024;13:30;12,77
22.03.2024;13:15;12,80
22.03.2024;13:00;12,93
22.03.2024;12:45;12,93
22.03.2024;12:30;12,93
22.03.2024;12:15;12,93
22.03.2024;12:00;12,93
22.03.2024;11:45;12,93
22.03.2024;11:30;12,93
22.03.2024;11:15;12,93
22.03.2024;11:00;12,93
22.03.2024;10:45;12,93
22.03.2024;10:30;12,93
22.03.2024;10:15;12,96
22.03.2024;10:00;12,96
22.03.2024;09:45;12,96
22.03.2024;09:30;12,96
22.03.2024;09:15;12,96
22.03.2024;09:00;12,96
22.03.2024;08:45;12,96
22.03.2024;08:30;12,99
22.03.2024;08:15;12,99
22.03.2024;08:00;13,02
22.03.2024;07:45;13,02
22.03.2024;07:30;13,02
22.03.2024;07:15;13,05
22.03.2024;07:00;13,05
22.03.2024;06:45;13,08
22.03.2024;06:30;13,08
22.03.2024;06:15;13,11
22.03.2024;06:00;13,17
22.03.2024;05:45;13,20
22.03.2024;05:30;13,29
22.03.2024;05:15;13,59
22.03.2024;05:00;12,93
22.03.2024;04:45;12,93
22.03.2024;04:30;12,90
22.03.2024;04:15;12,90
22.03.2024;04:00;12,93
22.03.2024;03:45;12,93
22.03.2024;03:30;12,93
22.03.2024;03:15;12,90
22.03.2024;03:00;12,93
22.03.2024;02:45;12,93
22.03.2024;02:30;12,90
22.03.2024;02:15;12,90
22.03.2024;02:00;12,93
22.03.2024;01:45;12,93
22.03.2024;01:30;12,90
22.03.2024;01:15;12,93
22.03.2024;01:00;12,93
22.03.2024;00:45;12,93
22.03.2024;00:30;12,90
22.03.2024;00:15;12,90
22.03.2024;00:00;12,90
21.03.2024;23:45;12,93
21.03.2024;23:30;12,93
21.03.2024;23:15;12,90
21.03.2024;23:00;12,93
21.03.2024;22:45;12,90
21.03.2024;22:30;12,93
21.03.2024;22:15;12,90
21.03.2024;22:00;12,93
21.03.2024;21:45;12,93
21.03.2024;21:30;12,93
21.03.2024;21:15;12,90
21.03.2024;21:00;12,93
21.03.2024;20:45;12,93
21.03.2024;20:30;12,90
21.03.2024;20:15;12,90
21.03.2024;20:00;12,93
21.03.2024;19:45;12,93
21.03.2024;19:30;12,93
21.03.2024;19:15;12,90
21.03.2024;19:00;12,93
21.03.2024;18:45;12,93
21.03.2024;18:30;12,93
21.03.2024;18:15;12,93
21.03.2024;18:00;12,93
21.03.2024;17:45;12,93
21.03.2024;17:30;12,90
21.03.2024;17:15;12,90
21.03.2024;17:00;12,90
21.03.2024;16:45;12,93
21.03.2024;16:30;12,90
21.03.2024;16:15;12,90
21.03.2024;16:00;12,93
21.03.2024;15:45;12,93
21.03.2024;15:30;12,90
21.03.2024;15:15;12,93
21.03.2024;15:00;12,90
21.03.2024;14:45;12,90
21.03.2024;14:30;12,90
21.03.2024;14:15;12,90
21.03.2024;14:00;12,90
21.03.2024;13:45;12,86
21.03.2024;13:30;12,80
21.03.2024;13:15;12,80
21.03.2024;13:00;12,93
21.03.2024;12:45;12,93
21.03.2024;12:30;12,93
21.03.2024;12:15;12,93
21.03.2024;12:00;12,93
21.03.2024;11:45;12,96
21.03.2024;11:30;12,93
21.03.2024;11:15;12,93
21.03.2024;11:00;12,96
21.03.2024;10:45;12,96
21.03.2024;10:30;12,96
21.03.2024;10:15;12,96
21.03.2024;10:00;12,96
21.03.2024;09:45;12,99
21.03.2024;09:30;12,99
21.03.2024;09:15;12,99
21.03.2024;09:00;13,02
21.03.2024;08:45;13,02
21.03.2024;08:30;13,02
21.03.2024;08:15;13,02
21.03.2024;08:00;13,05
21.03.2024;07:45;13,05
21.03.2024;07:30;13,08
21.03.2024;07:15;13,11
21.03.2024;07:00;13,14
21.03.2024;06:45;13,17
21.03.2024;06:30;13,26
21.03.2024;06:15;13,41
21.03.2024;06:00;12,93
21.03.2024;05:45;12,93
21.03.2024;05:30;12,93
21.03.2024;05:15;12,93
21.03.2024;05:00;12,93
21.03.2024;04:45;12,90
21.03.2024;04:30;12,93
21.03.2024;04:15;12,93
21.03.2024;04:00;12,93
21.03.2024;03:45;12,93
21.03.2024;03:30;12,93
21.03.2024;03:15;12,93
21.03.2024;03:00;12,93
21.03.2024;02:45;12,93
21.03.2024;02:30;12,93
21.03.2024;02:15;12,93
21.03.2024;02:00;12,93
21.03.2024;01:45;12,93
21.03.2024;01:30;12,90
21.03.2024;01:15;12,93
21.03.2024;01:00;12,93
21.03.2024;00:45;12,90
21.03.2024;00:30;12,93
21.03.2024;00:15;12,93
21.03.2024;00:00;12,93
20.03.2024;23:45;12,93
20.03.2024;23:30;12,93
20.03.2024;23:15;12,90
20.03.2024;23:00;12,93
20.03.2024;22:45;12,93
20.03.2024;22:30;12,93
20.03.2024;22:15;12,93
20.03.2024;22:00;12,93
20.03.2024;21:45;12,93
20.03.2024;21:30;12,93
20.03.2024;21:15;12,90
20.03.2024;21:00;12,93
20.03.2024;20:45;12,93
20.03.2024;20:30;12,90
20.03.2024;20:15;12,90
20.03.2024;20:00;12,93
20.03.2024;19:45;12,93
20.03.2024;19:30;12,93
20.03.2024;19:15;12,90
20.03.2024;19:00;12,93
20.03.2024;18:45;12,90
20.03.2024;18:30;12,93
20.03.2024;18:15;12,90
20.03.2024;18:00;12,90
20.03.2024;17:45;12,90
20.03.2024;17:30;12,90
20.03.2024;17:15;12,93
20.03.2024;17:00;12,93
20.03.2024;16:45;12,93
20.03.2024;16:30;12,93
20.03.2024;16:15;12,93
20.03.2024;16:00;12,90
20.03.2024;15:45;12,90
20.03.2024;15:30;12,90
20.03.2024;15:15;12,93
20.03.2024;15:00;12,93
20.03.2024;14:45;12,93
20.03.2024;14:30;12,90
20.03.2024;14:15;12,90
20.03.2024;14:00;12,90
20.03.2024;13:45;12,86
20.03.2024;13:30;12,80
20.03.2024;13:15;12,80
20.03.2024;13:00;12,93
20.03.2024;12:45;12,93
20.03.2024;12:30;12,93
20.03.2024;12:15;12,93
20.03.2024;12:00;12,96
20.03.2024;11:45;12,96
20.03.2024;11:30;12,96
20.03.2024;11:15;12,96
20.03.2024;11:00;12,96
20.03.2024;10:45;12,99
20.03.2024;10:30;12,99
20.03.2024;10:15;12,99
20.03.2024;10:00;13,02
20.03.2024;09:45;13,02
20.03.2024;09:30;13,02
20.03.2024;09:15;13,02
20.03.2024;09:00;13,05
20.03.2024;08:45;13,05
20.03.2024;08:30;13,05
20.03.2024;08:15;13,08
20.03.2024;08:00;13,14
20.03.2024;07:45;13,17
20.03.2024;07:30;13,20
20.03.2024;07:15;13,29
20.03.2024;07:00;13,59
20.03.2024;06:45;12,93
20.03.2024;06:30;12,93
20.03.2024;06:15;12,90
20.03.2024;06:00;12,93
20.03.2024;05:45;12,93
20.03.2024;05:30;12,93
20.03.2024;05:15;12,93
20.03.2024;05:00;12,93
20.03.2024;04:45;12,93
20.03.2024;04:30;12,93
20.03.2024;04:15;12,93
20.03.2024;04:00;12,93
20.03.2024;03:45;12,90
20.03.2024;03:30;12,93
20.03.2024;03:15;12,93
20.03.2024;03:00;12,93
20.03.2024;02:45;12,93
20.03.2024;02:30;12,93
20.03.2024;02:15;12,93
20.03.2024;02:00;12,93
20.03.2024;01:45;12,93
20.03.2024;01:30;12,93
20.03.2024;01:15;12,93
20.03.2024;01:00;12,93
20.03.2024;00:45;12,93
20.03.2024;00:30;12,93
20.03.2024;00:15;12,93
20.03.2024;00:00;12,93
19.03.2024;23:45;12,93
19.03.2024;23:30;12,93
19.03.2024;23:15;12,93
19.03.2024;23:00;12,93
19.03.2024;22:45;12,93
19.03.2024;22:30;12,93
19.03.2024;22:15;12,93
19.03.2024;22:00;12,93
19.03.2024;21:45;12,93
19.03.2024;21:30;12,93
19.03.2024;21:15;12,93
19.03.2024;21:00;12,93
19.03.2024;20:45;12,93
19.03.2024;20:30;12,93
19.03.2024;20:15;12,90
19.03.2024;20:00;12,93
19.03.2024;19:45;12,93
19.03.2024;19:30;12,93
19.03.2024;19:15;12,93
19.03.2024;19:00;12,93
19.03.2024;18:45;12,93
19.03.2024;18:30;12,93
19.03.2024;18:15;12,93
19.03.2024;18:00;12,93
19.03.2024;17:45;12,93
19.03.2024;17:30;12,93
19.03.2024;17:15;12,93
19.03.2024;17:00;12,93
19.03.2024;16:45;12,93
19.03.2024;16:30;12,93
19.03.2024;16:15;12,93
19.03.2024;16:00;12,93
19.03.2024;15:45;12,93
19.03.2024;15:30;12,93
19.03.2024;15:15;12,93
19.03.2024;15:00;12,93
19.03.2024;14:45;12,93
19.03.2024;14:30;12,90
19.03.2024;14:15;12,93
19.03.2024;14:00;12,93
19.03.2024;13:45;12,90
19.03.2024;13:30;12,80
19.03.2024;13:15;12,86
19.03.2024;13:00;12,96
19.03.2024;12:45;12,96
19.03.2024;12:30;12,96
19.03.2024;12:15;12,96
19.03.2024;12:00;12,99
19.03.2024;11:45;12,99
19.03.2024;11:30;12,99
19.03.2024;11:15;13,02
19.03.2024;11:00;13,02
19.03.2024;10:45;13,02
19.03.2024;10:30;13,05
19.03.2024;10:15;13,05
19.03.2024;10:00;13,05
19.03.2024;09:45;13,05
19.03.2024;09:30;13,08
19.03.2024;09:15;13,08
19.03.2024;09:00;13,14
19.03.2024;08:45;13,17
19.03.2024;08:30;13,20
19.03.2024;08:15;13,26
19.03.2024;08:00;13,44
19.03.2024;07:45;12,93
19.03.2024;07:30;12,93
19.03.2024;07:15;12,93
19.03.2024;07:00;12,93
19.03.2024;06:45;12,93
19.03.2024;06:30;12,93
19.03.2024;06:15;12,93
19.03.2024;06:00;12,93
19.03.2024;05:45;12,93
19.03.2024;05:30;12,93
19.03.2024;05:15;12,93
19.03.2024;05:00;12,93
19.03.2024;04:45;12,93
19.03.2024;04:30;12,93
19.03.2024;04:15;12,93
19.03.2024;04:00;12,93
19.03.2024;03:45;12,93
19.03.2024;03:30;12,93
19.03.2024;03:15;12,93
19.03.2024;03:00;12,93
19.03.2024;02:45;12,93
19.03.2024;02:30;12,93
19.03.2024;02:15;12,93
19.03.2024;02:00;12,93
19.03.2024;01:45;12,93
19.03.2024;01:30;12,93
19.03.2024;01:15;12,93
19.03.2024;01:00;12,93
19.03.2024;00:45;12,93
19.03.2024;00:30;12,93
19.03.2024;00:15;12,93
19.03.2024;00:00;12,93
18.03.2024;23:45;12,93
18.03.2024;23:30;12,93
18.03.2024;23:15;12,93
18.03.2024;23:00;12,93
18.03.2024;22:45;12,93
18.03.2024;22:30;12,93
18.03.2024;22:15;12,93
18.03.2024;22:00;12,93
18.03.2024;21:45;12,90
18.03.2024;21:30;12,93
18.03.2024;21:15;12,93
18.03.2024;21:00;12,93
18.03.2024;20:45;12,93
18.03.2024;20:30;12,93
18.03.2024;20:15;12,93
18.03.2024;20:00;12,93
18.03.2024;19:45;12,93
18.03.2024;19:30;12,93
18.03.2024;19:15;12,93
18.03.2024;19:00;12,93
18.03.2024;18:45;12,93
18.03.2024;18:30;12,93
18.03.2024;18:15;12,93
18.03.2024;18:00;12,93
18.03.2024;17:45;12,93
18.03.2024;17:30;12,93
18.03.2024;17:15;12,93
18.03.2024;17:00;12,93
18.03.2024;16:45;12,93
18.03.2024;16:30;12,93
18.03.2024;16:15;12,93
18.03.2024;16:00;12,93
18.03.2024;15:45;12,93
18.03.2024;15:30;12,93
18.03.2024;15:15;12,93
18.03.2024;15:00;12,93
18.03.2024;14:45;12,93
18.03.2024;14:30;12,93
18.03.2024;14:15;12,93
18.03.2024;14:00;12,93
18.03.2024;13:45;12,93
18.03.2024;13:30;12,83
18.03.2024;13:15;12,90
18.03.2024;13:00;12,99
18.03.2024;12:45;13,02
18.03.2024;12:30;13,02
18.03.2024;12:15;13,02
18.03.2024;12:00;13,05
18.03.2024;11:45;13,05
18.03.2024;11:30;13,05
18.03.2024;11:15;13,05